Year,Month,Day,Hour,Minute,Value (Times are PST for barometer in hPa)
2013,09,29,00,00,992.35
2013,09,29,00,01,992.35
2013,09,29,00,02,992.31
2013,09,29,00,03,992.28
2013,09,29,00,04,992.35
2013,09,29,00,05,992.42
2013,09,29,00,06,992.42
2013,09,29,00,07,992.45
2013,09,29,00,08,992.42
2013,09,29,00,09,992.48
2013,09,29,00,10,992.48
2013,09,29,00,11,992.48
2013,09,29,00,12,992.52
2013,09,29,00,13,992.52
2013,09,29,00,14,992.58
2013,09,29,00,15,992.62
2013,09,29,00,16,992.58
2013,09,29,00,17,992.58
2013,09,29,00,18,992.58
2013,09,29,00,19,992.58
2013,09,29,00,20,992.58
2013,09,29,00,21,992.62
2013,09,29,00,22,992.65
2013,09,29,00,23,992.65
2013,09,29,00,24,992.62
2013,09,29,00,25,992.65
2013,09,29,00,26,992.69
2013,09,29,00,27,992.72
2013,09,29,00,28,992.75
2013,09,29,00,29,992.82
2013,09,29,00,30,992.79
2013,09,29,00,31,992.79
2013,09,29,00,32,992.75
2013,09,29,00,33,992.69
2013,09,29,00,34,992.65
2013,09,29,00,35,992.65
2013,09,29,00,36,992.65
2013,09,29,00,37,992.65
2013,09,29,00,38,992.62
2013,09,29,00,39,992.58
2013,09,29,00,40,992.55
2013,09,29,00,41,992.58
2013,09,29,00,42,992.55
2013,09,29,00,43,992.55
2013,09,29,00,44,992.55
2013,09,29,00,45,992.59
2013,09,29,00,46,992.69
2013,09,29,00,47,992.69
2013,09,29,00,48,992.69
2013,09,29,00,49,992.72
2013,09,29,00,50,992.69
2013,09,29,00,51,992.69
2013,09,29,00,52,992.72
2013,09,29,00,53,992.72
2013,09,29,00,54,992.78
2013,09,29,00,55,992.72
2013,09,29,00,56,992.76
2013,09,29,00,57,992.82
2013,09,29,00,58,992.79
2013,09,29,00,59,992.82
2013,09,29,01,00,992.86
2013,09,29,01,01,992.83
2013,09,29,01,02,992.89
2013,09,29,01,03,992.86
2013,09,29,01,04,992.86
2013,09,29,01,05,992.86
2013,09,29,01,06,992.86
2013,09,29,01,07,992.82
2013,09,29,01,08,992.86
2013,09,29,01,09,992.89
2013,09,29,01,10,992.92
2013,09,29,01,11,992.96
2013,09,29,01,12,992.98
2013,09,29,01,13,992.92
2013,09,29,01,14,992.96
2013,09,29,01,15,992.96
2013,09,29,01,16,992.89
2013,09,29,01,17,992.82
2013,09,29,01,18,992.79
2013,09,29,01,19,992.75
2013,09,29,01,20,992.75
2013,09,29,01,21,992.72
2013,09,29,01,22,992.72
2013,09,29,01,23,992.68
2013,09,29,01,24,992.62
2013,09,29,01,25,992.65
2013,09,29,01,26,992.62
2013,09,29,01,27,992.62
2013,09,29,01,28,992.58
2013,09,29,01,29,992.55
2013,09,29,01,30,992.55
2013,09,29,01,31,992.52
2013,09,29,01,32,992.54
2013,09,29,01,33,992.48
2013,09,29,01,34,992.42
2013,09,29,01,35,992.42
2013,09,29,01,36,992.42
2013,09,29,01,37,992.38
2013,09,29,01,38,992.42
2013,09,29,01,39,992.42
2013,09,29,01,40,992.45
2013,09,29,01,41,992.45
2013,09,29,01,42,992.45
2013,09,29,01,43,992.42
2013,09,29,01,44,992.45
2013,09,29,01,45,992.48
2013,09,29,01,46,992.45
2013,09,29,01,47,992.42
2013,09,29,01,48,992.48
2013,09,29,01,49,992.42
2013,09,29,01,50,992.45
2013,09,29,01,51,992.45
2013,09,29,01,52,992.45
2013,09,29,01,53,992.45
2013,09,29,01,54,992.42
2013,09,29,01,55,992.48
2013,09,29,01,56,992.48
2013,09,29,01,57,992.45
2013,09,29,01,58,992.48
2013,09,29,01,59,992.48
2013,09,29,02,00,992.45
2013,09,29,02,01,992.48
2013,09,29,02,02,992.55
2013,09,29,02,03,992.58
2013,09,29,02,04,992.65
2013,09,29,02,05,992.65
2013,09,29,02,06,992.69
2013,09,29,02,07,992.75
2013,09,29,02,08,992.76
2013,09,29,02,09,992.86
2013,09,29,02,10,992.86
2013,09,29,02,11,992.79
2013,09,29,02,12,992.79
2013,09,29,02,13,992.79
2013,09,29,02,14,992.78
2013,09,29,02,15,992.72
2013,09,29,02,16,992.79
2013,09,29,02,17,992.69
2013,09,29,02,18,992.72
2013,09,29,02,19,992.75
2013,09,29,02,20,992.75
2013,09,29,02,21,992.75
2013,09,29,02,22,992.79
2013,09,29,02,23,992.79
2013,09,29,02,24,992.79
2013,09,29,02,25,992.82
2013,09,29,02,26,992.82
2013,09,29,02,27,992.86
2013,09,29,02,28,992.89
2013,09,29,02,29,992.82
2013,09,29,02,30,992.86
2013,09,29,02,31,992.89
2013,09,29,02,32,992.86
2013,09,29,02,33,992.92
2013,09,29,02,34,992.92
2013,09,29,02,35,992.89
2013,09,29,02,36,992.89
2013,09,29,02,37,992.92
2013,09,29,02,38,992.86
2013,09,29,02,39,992.89
2013,09,29,02,40,992.89
2013,09,29,02,41,992.92
2013,09,29,02,42,992.99
2013,09,29,02,43,993.06
2013,09,29,02,44,993.09
2013,09,29,02,45,993.16
2013,09,29,02,46,993.19
2013,09,29,02,47,993.23
2013,09,29,02,48,993.23
2013,09,29,02,49,993.16
2013,09,29,02,50,993.16
2013,09,29,02,51,993.09
2013,09,29,02,52,993.09
2013,09,29,02,53,993.13
2013,09,29,02,54,993.09
2013,09,29,02,55,993.15
2013,09,29,02,56,993.05
2013,09,29,02,57,992.99
2013,09,29,02,58,993.02
2013,09,29,02,59,992.89
2013,09,29,03,00,992.86
2013,09,29,03,01,992.79
2013,09,29,03,02,992.82
2013,09,29,03,03,992.79
2013,09,29,03,04,992.79
2013,09,29,03,05,992.86
2013,09,29,03,06,992.75
2013,09,29,03,07,992.75
2013,09,29,03,08,992.75
2013,09,29,03,09,992.82
2013,09,29,03,10,992.75
2013,09,29,03,11,992.75
2013,09,29,03,12,992.75
2013,09,29,03,13,992.79
2013,09,29,03,14,992.79
2013,09,29,03,15,992.82
2013,09,29,03,16,992.86
2013,09,29,03,17,992.89
2013,09,29,03,18,992.89
2013,09,29,03,19,992.79
2013,09,29,03,20,992.75
2013,09,29,03,21,992.72
2013,09,29,03,22,992.69
2013,09,29,03,23,992.58
2013,09,29,03,24,992.55
2013,09,29,03,25,992.52
2013,09,29,03,26,992.62
2013,09,29,03,27,992.58
2013,09,29,03,28,992.65
2013,09,29,03,29,992.65
2013,09,29,03,30,992.69
2013,09,29,03,31,992.72
2013,09,29,03,32,992.75
2013,09,29,03,33,992.75
2013,09,29,03,34,992.75
2013,09,29,03,35,992.82
2013,09,29,03,36,992.79
2013,09,29,03,37,992.82
2013,09,29,03,38,992.82
2013,09,29,03,39,992.86
2013,09,29,03,40,992.86
2013,09,29,03,41,992.89
2013,09,29,03,42,992.96
2013,09,29,03,43,992.99
2013,09,29,03,44,993.03
2013,09,29,03,45,993.06
2013,09,29,03,46,993.09
2013,09,29,03,47,993.06
2013,09,29,03,48,993.13
2013,09,29,03,49,993.09
2013,09,29,03,50,993.09
2013,09,29,03,51,993.09
2013,09,29,03,52,993.06
2013,09,29,03,53,993.06
2013,09,29,03,54,993.03
2013,09,29,03,55,993.03
2013,09,29,03,56,993.09
2013,09,29,03,57,993.06
2013,09,29,03,58,993.06
2013,09,29,03,59,993.06
2013,09,29,04,00,993.03
2013,09,29,04,01,992.99
2013,09,29,04,02,992.96
2013,09,29,04,03,992.89
2013,09,29,04,04,992.89
2013,09,29,04,05,992.92
2013,09,29,04,06,992.99
2013,09,29,04,07,993.06
2013,09,29,04,08,993.06
2013,09,29,04,09,993.06
2013,09,29,04,10,993.09
2013,09,29,04,11,993.13
2013,09,29,04,12,993.13
2013,09,29,04,13,993.13
2013,09,29,04,14,993.16
2013,09,29,04,15,993.16
2013,09,29,04,16,993.16
2013,09,29,04,17,993.16
2013,09,29,04,18,993.16
2013,09,29,04,19,993.16
2013,09,29,04,20,993.16
2013,09,29,04,21,993.19
2013,09,29,04,22,993.23
2013,09,29,04,23,993.23
2013,09,29,04,24,993.23
2013,09,29,04,25,993.26
2013,09,29,04,26,993.26
2013,09,29,04,27,993.30
2013,09,29,04,28,993.33
2013,09,29,04,29,993.33
2013,09,29,04,30,993.30
2013,09,29,04,31,993.33
2013,09,29,04,32,993.30
2013,09,29,04,33,993.36
2013,09,29,04,34,993.30
2013,09,29,04,35,993.30
2013,09,29,04,36,993.26
2013,09,29,04,37,993.26
2013,09,29,04,38,993.19
2013,09,29,04,39,993.19
2013,09,29,04,40,993.13
2013,09,29,04,41,993.13
2013,09,29,04,42,993.13
2013,09,29,04,43,993.19
2013,09,29,04,44,993.13
2013,09,29,04,45,993.13
2013,09,29,04,46,993.09
2013,09,29,04,47,993.09
2013,09,29,04,48,993.03
2013,09,29,04,49,992.99
2013,09,29,04,50,992.89
2013,09,29,04,51,992.86
2013,09,29,04,52,992.75
2013,09,29,04,53,992.65
2013,09,29,04,54,992.58
2013,09,29,04,55,992.62
2013,09,29,04,56,992.65
2013,09,29,04,57,992.62
2013,09,29,04,58,992.65
2013,09,29,04,59,992.69
2013,09,29,05,00,992.75
2013,09,29,05,01,992.72
2013,09,29,05,02,992.79
2013,09,29,05,03,992.79
2013,09,29,05,04,992.79
2013,09,29,05,05,992.89
2013,09,29,05,06,992.92
2013,09,29,05,07,992.92
2013,09,29,05,08,992.96
2013,09,29,05,09,992.99
2013,09,29,05,10,992.99
2013,09,29,05,11,993.03
2013,09,29,05,12,992.96
2013,09,29,05,13,993.03
2013,09,29,05,14,993.06
2013,09,29,05,15,993.06
2013,09,29,05,16,993.06
2013,09,29,05,17,993.06
2013,09,29,05,18,993.09
2013,09,29,05,19,993.09
2013,09,29,05,20,993.09
2013,09,29,05,21,993.16
2013,09,29,05,22,993.16
2013,09,29,05,23,993.19
2013,09,29,05,24,993.19
2013,09,29,05,25,993.19
2013,09,29,05,26,993.23
2013,09,29,05,27,993.23
2013,09,29,05,28,993.23
2013,09,29,05,29,993.23
2013,09,29,05,30,993.26
2013,09,29,05,31,993.30
2013,09,29,05,32,993.23
2013,09,29,05,33,993.26
2013,09,29,05,34,993.30
2013,09,29,05,35,993.26
2013,09,29,05,36,993.30
2013,09,29,05,37,993.33
2013,09,29,05,38,993.30
2013,09,29,05,39,993.30
2013,09,29,05,40,993.19
2013,09,29,05,41,993.23
2013,09,29,05,42,993.23
2013,09,29,05,43,993.13
2013,09,29,05,44,993.03
2013,09,29,05,45,992.96
2013,09,29,05,46,992.89
2013,09,29,05,47,992.89
2013,09,29,05,48,992.86
2013,09,29,05,49,992.82
2013,09,29,05,50,992.75
2013,09,29,05,51,992.72
2013,09,29,05,52,992.72
2013,09,29,05,53,992.69
2013,09,29,05,54,992.72
2013,09,29,05,55,992.69
2013,09,29,05,56,992.75
2013,09,29,05,57,992.82
2013,09,29,05,58,992.86
2013,09,29,05,59,992.89
2013,09,29,06,00,992.89
2013,09,29,06,01,992.89
2013,09,29,06,02,992.86
2013,09,29,06,03,992.79
2013,09,29,06,04,992.75
2013,09,29,06,05,992.75
2013,09,29,06,06,992.75
2013,09,29,06,07,992.79
2013,09,29,06,08,992.79
2013,09,29,06,09,992.75
2013,09,29,06,10,992.75
2013,09,29,06,11,992.82
2013,09,29,06,12,992.79
2013,09,29,06,13,992.82
2013,09,29,06,14,992.86
2013,09,29,06,15,992.92
2013,09,29,06,16,992.96
2013,09,29,06,17,992.99
2013,09,29,06,18,993.03
2013,09,29,06,19,993.09
2013,09,29,06,20,993.09
2013,09,29,06,21,993.13
2013,09,29,06,22,993.16
2013,09,29,06,23,993.16
2013,09,29,06,24,993.16
2013,09,29,06,25,993.19
2013,09,29,06,26,993.26
2013,09,29,06,27,993.23
2013,09,29,06,28,993.30
2013,09,29,06,29,993.30
2013,09,29,06,30,993.30
2013,09,29,06,31,993.30
2013,09,29,06,32,993.30
2013,09,29,06,33,993.23
2013,09,29,06,34,993.23
2013,09,29,06,35,993.23
2013,09,29,06,36,993.23
2013,09,29,06,37,993.19
2013,09,29,06,38,993.19
2013,09,29,06,39,993.23
2013,09,29,06,40,993.23
2013,09,29,06,41,993.30
2013,09,29,06,42,993.26
2013,09,29,06,43,993.30
2013,09,29,06,44,993.30
2013,09,29,06,45,993.30
2013,09,29,06,46,993.36
2013,09,29,06,47,993.33
2013,09,29,06,48,993.33
2013,09,29,06,49,993.33
2013,09,29,06,50,993.36
2013,09,29,06,51,993.36
2013,09,29,06,52,993.40
2013,09,29,06,53,993.47
2013,09,29,06,54,993.47
2013,09,29,06,55,993.57
2013,09,29,06,56,993.60
2013,09,29,06,57,993.70
2013,09,29,06,58,993.67
2013,09,29,06,59,993.67
2013,09,29,07,00,993.67
2013,09,29,07,01,993.67
2013,09,29,07,02,993.70
2013,09,29,07,03,993.74
2013,09,29,07,04,993.80
2013,09,29,07,05,993.80
2013,09,29,07,06,993.80
2013,09,29,07,07,993.80
2013,09,29,07,08,993.80
2013,09,29,07,09,993.77
2013,09,29,07,10,993.77
2013,09,29,07,11,993.80
2013,09,29,07,12,993.77
2013,09,29,07,13,993.80
2013,09,29,07,14,993.74
2013,09,29,07,15,993.74
2013,09,29,07,16,993.70
2013,09,29,07,17,993.74
2013,09,29,07,18,993.70
2013,09,29,07,19,993.70
2013,09,29,07,20,993.67
2013,09,29,07,21,993.63
2013,09,29,07,22,993.67
2013,09,29,07,23,993.53
2013,09,29,07,24,993.50
2013,09,29,07,25,993.53
2013,09,29,07,26,993.53
2013,09,29,07,27,993.47
2013,09,29,07,28,993.47
2013,09,29,07,29,993.40
2013,09,29,07,30,993.36
2013,09,29,07,31,993.36
2013,09,29,07,32,993.40
2013,09,29,07,33,993.40
2013,09,29,07,34,993.40
2013,09,29,07,35,993.43
2013,09,29,07,36,993.50
2013,09,29,07,37,993.47
2013,09,29,07,38,993.50
2013,09,29,07,39,993.53
2013,09,29,07,40,993.57
2013,09,29,07,41,993.60
2013,09,29,07,42,993.67
2013,09,29,07,43,993.67
2013,09,29,07,44,993.67
2013,09,29,07,45,993.70
2013,09,29,07,46,993.70
2013,09,29,07,47,993.74
2013,09,29,07,48,993.77
2013,09,29,07,49,993.80
2013,09,29,07,50,993.84
2013,09,29,07,51,993.84
2013,09,29,07,52,993.87
2013,09,29,07,53,993.87
2013,09,29,07,54,993.84
2013,09,29,07,55,993.77
2013,09,29,07,56,993.80
2013,09,29,07,57,993.80
2013,09,29,07,58,993.87
2013,09,29,07,59,993.91
2013,09,29,08,00,993.91
2013,09,29,08,01,993.94
2013,09,29,08,02,993.91
2013,09,29,08,03,993.91
2013,09,29,08,04,993.94
2013,09,29,08,05,994.01
2013,09,29,08,06,994.04
2013,09,29,08,07,994.01
2013,09,29,08,08,994.01
2013,09,29,08,09,994.04
2013,09,29,08,10,994.01
2013,09,29,08,11,994.11
2013,09,29,08,12,994.14
2013,09,29,08,13,994.21
2013,09,29,08,14,994.18
2013,09,29,08,15,994.14
2013,09,29,08,16,994.14
2013,09,29,08,17,994.11
2013,09,29,08,18,994.11
2013,09,29,08,19,994.14
2013,09,29,08,20,994.18
2013,09,29,08,21,994.18
2013,09,29,08,22,994.24
2013,09,29,08,23,994.21
2013,09,29,08,24,994.14
2013,09,29,08,25,994.11
2013,09,29,08,26,994.07
2013,09,29,08,27,993.97
2013,09,29,08,28,993.94
2013,09,29,08,29,993.87
2013,09,29,08,30,993.80
2013,09,29,08,31,993.74
2013,09,29,08,32,993.80
2013,09,29,08,33,993.74
2013,09,29,08,34,993.80
2013,09,29,08,35,993.74
2013,09,29,08,36,993.63
2013,09,29,08,37,993.57
2013,09,29,08,38,993.57
2013,09,29,08,39,993.53
2013,09,29,08,40,993.57
2013,09,29,08,41,993.57
2013,09,29,08,42,993.60
2013,09,29,08,43,993.60
2013,09,29,08,44,993.57
2013,09,29,08,45,993.57
2013,09,29,08,46,993.50
2013,09,29,08,47,993.47
2013,09,29,08,48,993.47
2013,09,29,08,49,993.43
2013,09,29,08,50,993.40
2013,09,29,08,51,993.47
2013,09,29,08,52,993.57
2013,09,29,08,53,993.67
2013,09,29,08,54,993.74
2013,09,29,08,55,993.84
2013,09,29,08,56,993.91
2013,09,29,08,57,993.91
2013,09,29,08,58,993.94
2013,09,29,08,59,993.97
2013,09,29,09,00,994.01
2013,09,29,09,01,994.01
2013,09,29,09,02,994.07
2013,09,29,09,03,994.04
2013,09,29,09,04,994.07
2013,09,29,09,05,994.04
2013,09,29,09,06,994.11
2013,09,29,09,07,994.11
2013,09,29,09,08,994.14
2013,09,29,09,09,994.11
2013,09,29,09,10,994.14
2013,09,29,09,11,994.18
2013,09,29,09,12,994.18
2013,09,29,09,13,994.18
2013,09,29,09,14,994.18
2013,09,29,09,15,994.14
2013,09,29,09,16,994.14
2013,09,29,09,17,994.14
2013,09,29,09,18,994.18
2013,09,29,09,19,994.14
2013,09,29,09,20,994.14
2013,09,29,09,21,994.21
2013,09,29,09,22,994.24
2013,09,29,09,23,994.24
2013,09,29,09,24,994.21
2013,09,29,09,25,994.21
2013,09,29,09,26,994.21
2013,09,29,09,27,994.18
2013,09,29,09,28,994.18
2013,09,29,09,29,994.21
2013,09,29,09,30,994.11
2013,09,29,09,31,994.11
2013,09,29,09,32,994.04
2013,09,29,09,33,994.04
2013,09,29,09,34,994.04
2013,09,29,09,35,994.14
2013,09,29,09,36,994.11
2013,09,29,09,37,994.07
2013,09,29,09,38,994.01
2013,09,29,09,39,994.11
2013,09,29,09,40,994.11
2013,09,29,09,41,994.18
2013,09,29,09,42,994.24
2013,09,29,09,43,994.35
2013,09,29,09,44,994.35
2013,09,29,09,45,994.31
2013,09,29,09,46,994.35
2013,09,29,09,47,994.35
2013,09,29,09,48,994.35
2013,09,29,09,49,994.28
2013,09,29,09,50,994.24
2013,09,29,09,51,994.24
2013,09,29,09,52,994.28
2013,09,29,09,53,994.31
2013,09,29,09,54,994.28
2013,09,29,09,55,994.31
2013,09,29,09,56,994.35
2013,09,29,09,57,994.35
2013,09,29,09,58,994.38
2013,09,29,09,59,994.38
2013,09,29,10,00,994.35
2013,09,29,10,01,994.38
2013,09,29,10,02,994.31
2013,09,29,10,03,994.41
2013,09,29,10,04,994.38
2013,09,29,10,05,994.38
2013,09,29,10,06,994.38
2013,09,29,10,07,994.35
2013,09,29,10,08,994.41
2013,09,29,10,09,994.31
2013,09,29,10,10,994.31
2013,09,29,10,11,994.35
2013,09,29,10,12,994.35
2013,09,29,10,13,994.48
2013,09,29,10,14,994.45
2013,09,29,10,15,994.45
2013,09,29,10,16,994.41
2013,09,29,10,17,994.45
2013,09,29,10,18,994.52
2013,09,29,10,19,994.52
2013,09,29,10,20,994.55
2013,09,29,10,21,994.55
2013,09,29,10,22,994.62
2013,09,29,10,23,994.58
2013,09,29,10,24,994.58
2013,09,29,10,25,994.55
2013,09,29,10,26,994.58
2013,09,29,10,27,994.58
2013,09,29,10,28,994.58
2013,09,29,10,29,994.58
2013,09,29,10,30,994.58
2013,09,29,10,31,994.62
2013,09,29,10,32,994.65
2013,09,29,10,33,994.62
2013,09,29,10,34,994.62
2013,09,29,10,35,994.68
2013,09,29,10,36,994.62
2013,09,29,10,37,994.65
2013,09,29,10,38,994.58
2013,09,29,10,39,994.55
2013,09,29,10,40,994.55
2013,09,29,10,41,994.52
2013,09,29,10,42,994.55
2013,09,29,10,43,994.55
2013,09,29,10,44,994.55
2013,09,29,10,45,994.48
2013,09,29,10,46,994.48
2013,09,29,10,47,994.45
2013,09,29,10,48,994.35
2013,09,29,10,49,994.31
2013,09,29,10,50,994.31
2013,09,29,10,51,994.31
2013,09,29,10,52,994.31
2013,09,29,10,53,994.35
2013,09,29,10,54,994.38
2013,09,29,10,55,994.31
2013,09,29,10,56,994.28
2013,09,29,10,57,994.38
2013,09,29,10,58,994.35
2013,09,29,10,59,994.35
2013,09,29,11,00,994.41
2013,09,29,11,01,994.38
2013,09,29,11,02,994.35
2013,09,29,11,03,994.38
2013,09,29,11,04,994.41
2013,09,29,11,05,994.41
2013,09,29,11,06,994.38
2013,09,29,11,07,994.48
2013,09,29,11,08,994.48
2013,09,29,11,09,994.52
2013,09,29,11,10,994.52
2013,09,29,11,11,994.52
2013,09,29,11,12,994.55
2013,09,29,11,13,994.55
2013,09,29,11,14,994.52
2013,09,29,11,15,994.52
2013,09,29,11,16,994.55
2013,09,29,11,17,994.58
2013,09,29,11,18,994.62
2013,09,29,11,19,994.58
2013,09,29,11,20,994.65
2013,09,29,11,21,994.62
2013,09,29,11,22,994.68
2013,09,29,11,23,994.75
2013,09,29,11,24,994.79
2013,09,29,11,25,994.79
2013,09,29,11,26,994.75
2013,09,29,11,27,994.68
2013,09,29,11,28,994.72
2013,09,29,11,29,994.68
2013,09,29,11,30,994.75
2013,09,29,11,31,994.75
2013,09,29,11,32,994.79
2013,09,29,11,33,994.75
2013,09,29,11,34,994.82
2013,09,29,11,35,994.79
2013,09,29,11,36,994.72
2013,09,29,11,37,994.72
2013,09,29,11,38,994.68
2013,09,29,11,39,994.68
2013,09,29,11,40,994.65
2013,09,29,11,41,994.62
2013,09,29,11,42,994.65
2013,09,29,11,43,994.65
2013,09,29,11,44,994.65
2013,09,29,11,45,994.62
2013,09,29,11,46,994.62
2013,09,29,11,47,994.65
2013,09,29,11,48,994.65
2013,09,29,11,49,994.72
2013,09,29,11,50,994.68
2013,09,29,11,51,994.72
2013,09,29,11,52,994.75
2013,09,29,11,53,994.65
2013,09,29,11,54,994.68
2013,09,29,11,55,994.68
2013,09,29,11,56,994.72
2013,09,29,11,57,994.68
2013,09,29,11,58,994.68
2013,09,29,11,59,994.65
2013,09,29,12,00,994.62
2013,09,29,12,01,994.62
2013,09,29,12,02,994.62
2013,09,29,12,03,994.65
2013,09,29,12,04,994.65
2013,09,29,12,05,994.65
2013,09,29,12,06,994.62
2013,09,29,12,07,994.62
2013,09,29,12,08,994.58
2013,09,29,12,09,994.58
2013,09,29,12,10,994.58
2013,09,29,12,11,994.55
2013,09,29,12,12,994.62
2013,09,29,12,13,994.62
2013,09,29,12,14,994.62
2013,09,29,12,15,994.58
2013,09,29,12,16,994.62
2013,09,29,12,17,994.58
2013,09,29,12,18,994.58
2013,09,29,12,19,994.58
2013,09,29,12,20,994.58
2013,09,29,12,21,994.55
2013,09,29,12,22,994.55
2013,09,29,12,23,994.52
2013,09,29,12,24,994.52
2013,09,29,12,25,994.55
2013,09,29,12,26,994.52
2013,09,29,12,27,994.55
2013,09,29,12,28,994.52
2013,09,29,12,29,994.55
2013,09,29,12,30,994.45
2013,09,29,12,31,994.48
2013,09,29,12,32,994.45
2013,09,29,12,33,994.48
2013,09,29,12,34,994.48
2013,09,29,12,35,994.41
2013,09,29,12,36,994.41
2013,09,29,12,37,994.45
2013,09,29,12,38,994.41
2013,09,29,12,39,994.41
2013,09,29,12,40,994.38
2013,09,29,12,41,994.35
2013,09,29,12,42,994.35
2013,09,29,12,43,994.31
2013,09,29,12,44,994.28
2013,09,29,12,45,994.28
2013,09,29,12,46,994.24
2013,09,29,12,47,994.28
2013,09,29,12,48,994.24
2013,09,29,12,49,994.18
2013,09,29,12,50,994.18
2013,09,29,12,51,994.18
2013,09,29,12,52,994.18
2013,09,29,12,53,994.14
2013,09,29,12,54,994.14
2013,09,29,12,55,994.11
2013,09,29,12,56,994.11
2013,09,29,12,57,994.11
2013,09,29,12,58,994.07
2013,09,29,12,59,994.04
2013,09,29,13,00,994.01
2013,09,29,13,01,993.97
2013,09,29,13,02,994.01
2013,09,29,13,03,993.97
2013,09,29,13,04,993.94
2013,09,29,13,05,993.91
2013,09,29,13,06,993.87
2013,09,29,13,07,993.84
2013,09,29,13,08,993.84
2013,09,29,13,09,993.84
2013,09,29,13,10,993.80
2013,09,29,13,11,993.74
2013,09,29,13,12,993.74
2013,09,29,13,13,993.70
2013,09,29,13,14,993.63
2013,09,29,13,15,993.57
2013,09,29,13,16,993.50
2013,09,29,13,17,993.47
2013,09,29,13,18,993.40
2013,09,29,13,19,993.36
2013,09,29,13,20,993.30
2013,09,29,13,21,993.26
2013,09,29,13,22,993.16
2013,09,29,13,23,993.09
2013,09,29,13,24,993.09
2013,09,29,13,25,993.03
2013,09,29,13,26,992.96
2013,09,29,13,27,992.89
2013,09,29,13,28,992.79
2013,09,29,13,29,992.65
2013,09,29,13,30,992.62
2013,09,29,13,31,992.55
2013,09,29,13,32,992.52
2013,09,29,13,33,992.55
2013,09,29,13,34,992.59
2013,09,29,13,35,992.79
2013,09,29,13,36,992.89
2013,09,29,13,37,992.92
2013,09,29,13,38,992.99
2013,09,29,13,39,992.99
2013,09,29,13,40,993.09
2013,09,29,13,41,993.06
2013,09,29,13,42,993.09
2013,09,29,13,43,993.06
2013,09,29,13,44,993.03
2013,09,29,13,45,993.03
2013,09,29,13,46,993.06
2013,09,29,13,47,993.03
2013,09,29,13,48,993.03
2013,09,29,13,49,992.96
2013,09,29,13,50,992.99
2013,09,29,13,51,992.99
2013,09,29,13,52,992.99
2013,09,29,13,53,992.99
2013,09,29,13,54,992.96
2013,09,29,13,55,992.92
2013,09,29,13,56,992.92
2013,09,29,13,57,992.86
2013,09,29,13,58,992.82
2013,09,29,13,59,992.75
2013,09,29,14,00,992.75
2013,09,29,14,01,992.69
2013,09,29,14,02,992.62
2013,09,29,14,03,992.58
2013,09,29,14,04,992.55
2013,09,29,14,05,992.52
2013,09,29,14,06,992.55
2013,09,29,14,07,992.45
2013,09,29,14,08,992.45
2013,09,29,14,09,992.45
2013,09,29,14,10,992.52
2013,09,29,14,11,992.55
2013,09,29,14,12,992.55
2013,09,29,14,13,992.62
2013,09,29,14,14,992.72
2013,09,29,14,15,992.72
2013,09,29,14,16,992.72
2013,09,29,14,17,992.72
2013,09,29,14,18,992.69
2013,09,29,14,19,992.69
2013,09,29,14,20,992.65
2013,09,29,14,21,992.69
2013,09,29,14,22,992.65
2013,09,29,14,23,992.58
2013,09,29,14,24,992.62
2013,09,29,14,25,992.58
2013,09,29,14,26,992.62
2013,09,29,14,27,992.58
2013,09,29,14,28,992.58
2013,09,29,14,29,992.65
2013,09,29,14,30,992.62
2013,09,29,14,31,992.55
2013,09,29,14,32,992.52
2013,09,29,14,33,992.55
2013,09,29,14,34,992.52
2013,09,29,14,35,992.45
2013,09,29,14,36,992.45
2013,09,29,14,37,992.45
2013,09,29,14,38,992.45
2013,09,29,14,39,992.45
2013,09,29,14,40,992.45
2013,09,29,14,41,992.45
2013,09,29,14,42,992.35
2013,09,29,14,43,992.35
2013,09,29,14,44,992.35
2013,09,29,14,45,992.31
2013,09,29,14,46,992.38
2013,09,29,14,47,992.31
2013,09,29,14,48,992.28
2013,09,29,14,49,992.35
2013,09,29,14,50,992.35
2013,09,29,14,51,992.31
2013,09,29,14,52,992.25
2013,09,29,14,53,992.25
2013,09,29,14,54,992.21
2013,09,29,14,55,992.18
2013,09,29,14,56,992.18
2013,09,29,14,57,992.11
2013,09,29,14,58,992.08
2013,09,29,14,59,992.08
2013,09,29,15,00,992.08
2013,09,29,15,01,992.01
2013,09,29,15,02,992.01
2013,09,29,15,03,991.94
2013,09,29,15,04,991.91
2013,09,29,15,05,991.91
2013,09,29,15,06,991.87
2013,09,29,15,07,991.87
2013,09,29,15,08,991.91
2013,09,29,15,09,991.91
2013,09,29,15,10,991.84
2013,09,29,15,11,991.84
2013,09,29,15,12,991.77
2013,09,29,15,13,991.77
2013,09,29,15,14,991.74
2013,09,29,15,15,991.74
2013,09,29,15,16,991.67
2013,09,29,15,17,991.70
2013,09,29,15,18,991.74
2013,09,29,15,19,991.70
2013,09,29,15,20,991.74
2013,09,29,15,21,991.67
2013,09,29,15,22,991.64
2013,09,29,15,23,991.64
2013,09,29,15,24,991.57
2013,09,29,15,25,991.53
2013,09,29,15,26,991.50
2013,09,29,15,27,991.53
2013,09,29,15,28,991.53
2013,09,29,15,29,991.50
2013,09,29,15,30,991.50
2013,09,29,15,31,991.43
2013,09,29,15,32,991.33
2013,09,29,15,33,991.37
2013,09,29,15,34,991.30
2013,09,29,15,35,991.20
2013,09,29,15,36,991.13
2013,09,29,15,37,991.13
2013,09,29,15,38,991.06
2013,09,29,15,39,990.99
2013,09,29,15,40,991.03
2013,09,29,15,41,991.03
2013,09,29,15,42,990.96
2013,09,29,15,43,991.03
2013,09,29,15,44,990.93
2013,09,29,15,45,990.86
2013,09,29,15,46,990.89
2013,09,29,15,47,990.96
2013,09,29,15,48,990.86
2013,09,29,15,49,990.93
2013,09,29,15,50,990.82
2013,09,29,15,51,990.82
2013,09,29,15,52,990.86
2013,09,29,15,53,990.86
2013,09,29,15,54,990.82
2013,09,29,15,55,990.86
2013,09,29,15,56,990.86
2013,09,29,15,57,990.82
2013,09,29,15,58,990.86
2013,09,29,15,59,990.82
2013,09,29,16,00,990.82
2013,09,29,16,01,990.79
2013,09,29,16,02,990.72
2013,09,29,16,03,990.76
2013,09,29,16,04,990.69
2013,09,29,16,05,990.69
2013,09,29,16,06,990.69
2013,09,29,16,07,990.65
2013,09,29,16,08,990.65
2013,09,29,16,09,990.65
2013,09,29,16,10,990.59
2013,09,29,16,11,990.62
2013,09,29,16,12,990.72
2013,09,29,16,13,990.62
2013,09,29,16,14,990.59
2013,09,29,16,15,990.59
2013,09,29,16,16,990.55
2013,09,29,16,17,990.55
2013,09,29,16,18,990.59
2013,09,29,16,19,990.55
2013,09,29,16,20,990.49
2013,09,29,16,21,990.52
2013,09,29,16,22,990.52
2013,09,29,16,23,990.38
2013,09,29,16,24,990.42
2013,09,29,16,25,990.35
2013,09,29,16,26,990.38
2013,09,29,16,27,990.32
2013,09,29,16,28,990.28
2013,09,29,16,29,990.18
2013,09,29,16,30,990.18
2013,09,29,16,31,990.18
2013,09,29,16,32,990.08
2013,09,29,16,33,990.15
2013,09,29,16,34,990.08
2013,09,29,16,35,990.01
2013,09,29,16,36,990.04